Weather in Buchholz in der Nordheide

Germany     53°20′09″N   9°52′50″E
temp.,
°C
wind,
m/s
gust,
m/s
humid.,
%
clouds,
%
prec.,
mm/h
press.,
hPa
HPBL,
m
1 march, mon
mon101:00+1nw119612 0.0 103622
04:00+1nw129714 0.0 103522
07:000nne11977 0.0 103622
10:00+5nne01778 0.0 1036242
13:00+9ene12584 0.0 1036503
16:00+10ene22590 0.0 1034479
19:00+5ene12770 0.0 103422
22:00+4e12840 0.0 103522
2 march, tue
tue201:00+3ese12910 0.0 103522
04:00+3ese12930 0.0 103322
07:00+2e12930 0.0 103423
10:00+7e23740 0.0 1034217
13:00+12e24530 0.0 1034422
16:00+12e24540 0.0 1032484
19:00+7ese23770 0.0 103250
22:00+6se23860 0.0 103247
3 march, wed
wed301:00+5se23900 0.0 103166
04:00+4sse22920 0.0 102928
07:00+3ssw23910 0.0 102932
10:00+8sw24690 0.0 1027236
13:00+12wsw35590 0.0 1026536
16:00+13wsw36640 0.0 1023835
19:00+9wsw389019 0.0 1022219
22:00+6w288920 0.0 1021260
4 march, thu
thu401:00+4w379138 0.0 1020252
04:00+3w379759 0.0 1018266
07:00+2w389876 0.0 1017297
10:00+4wnw3685100 0.0 1016502
13:00+5wnw4676100 0.0 1015601
16:00+6wnw4768100 0.0 1013851
19:00+5nnw3681100 0.1 1014638
22:00+2nne61095100 0.2 1016745
5 march, fri
fri501:00+1nne488295 0.3 1018872
04:00−2nnw378283 0.0 1020293
07:00−2nnw258442 0.0 1021196
10:00+2nne24550 0.0 1023624
13:00+5nne22340 0.0 10241556
16:00+5nne233433 0.0 10242125
19:00+1ne225453 0.0 102633
22:00−1nne01550 0.0 102921